This is the latest recevied weather packets stored in our database for station/object KC8YYF. If no packets are shown the sender has not sent any weather packets the latest 1 day(s).
| Time | Temp. | Humidity | Pressure | Rain* | Wind** | Luminosity | Snow |
|---|---|---|---|---|---|---|---|
| 1778080258 | 9.44° C | 88% | 1011.5 hPa | 0 mm | - | 106 W/m² | - |
| 1778079348 | 8.89° C | 91% | 1011.7 hPa | 0 mm | - | 71 W/m² | - |
| 1778077231 | 8.89° C | 97% | 1011.1 hPa | 0 mm | - | 54 W/m² | - |
| 1778076021 | 8.89° C | 99% | 1010.8 hPa | 0 mm | - | 38 W/m² | - |
| 1778075414 | 8.89° C | 99% | 1010.9 hPa | 0 mm | - | 42 W/m² | - |
| 1778075110 | 8.89° C | 99% | 1010.6 hPa | 0 mm | - | 83 W/m² | - |
| 1778074504 | 7.78° C | 99% | 1010.5 hPa | 0 mm | - | 50 W/m² | - |
| 1778073595 | 8.89° C | 99% | 1010.5 hPa | 0 mm | - | 43 W/m² | - |
| 1778072685 | 8.33° C | 99% | 1010.3 hPa | 0 mm | - | 66 W/m² | - |
| 1778072081 | 7.78° C | 99% | 1010.5 hPa | 0.51 mm | - | 44 W/m² | - |
| 1778071476 | 7.78° C | 99% | 1009.9 hPa | 0 mm | - | 56 W/m² | - |
| 1778071174 | 7.78° C | 99% | 1009.6 hPa | 0 mm | - | 64 W/m² | - |
| 1778069055 | 7.22° C | 99% | 1009.6 hPa | 0 mm | - | 7 W/m² | - |
| 1778066635 | 7.22° C | 99% | 1009.3 hPa | 0.51 mm | - | 1 W/m² | - |
| 1778066332 | 7.22° C | 99% | 1009 hPa | 0 mm | - | 1 W/m² | - |
| 1778064213 | 7.22° C | 99% | 1008.7 hPa | 0 mm | - | 0 W/m² | - |
| 1778063608 | 7.22° C | 99% | 1007.9 hPa | 0 mm | - | 0 W/m² | - |
| 1778063305 | 7.22° C | 99% | 1007.8 hPa | 0 mm | - | 0 W/m² | - |
| 1778063003 | 7.22° C | 99% | 1007.5 hPa | 0 mm | - | 0 W/m² | - |
| 1778062700 | 7.22° C | 99% | 1007.4 hPa | 0 mm | - | 0 W/m² | - |
| 1778062094 | 7.22° C | 99% | 1007.9 hPa | 0.51 mm | - | 0 W/m² | - |
| 1778060582 | 7.22° C | 99% | 1007.6 hPa | 0 mm | - | 0 W/m² | - |
| 1778060280 | 7.22° C | 99% | 1007.7 hPa | 0 mm | - | 0 W/m² | - |
| 1778059978 | 7.22° C | 99% | 1008.4 hPa | 0 mm | - | 0 W/m² | - |
| 1778059675 | 7.22° C | 99% | 1008.7 hPa | 0 mm | - | 0 W/m² | - |
* Rain latest hour (hover to see other rain measurements)
** Current wind speed in m/s (hover to see current wind gust speed)